Stigler, OK

10:34 AM CDT on August 25, 2016 (GMT -0500)
Stigler

Weather History for KGZL - March, 2013

Change the Weather History Date:

Monday, March 18, 2013

  Actual Average (KJSV) Record (KJSV)
Temperature  
Mean Temperature 47 °F -  
Max Temperature 57 °F 67 °F 81 °F (1982)
Min Temperature 37 °F 43 °F 18 °F (1960)
Degree Days  
Heating Degree Days 18    
Moisture  
Dew Point 40 °F    
Average Humidity 79    
Maximum Humidity 100    
Minimum Humidity 38    
Precipitation  
Precipitation 0.01 in - - ()
Sea Level Pressure  
Sea Level Pressure 29.90 in    
Wind  
Wind Speed 6 mph (North)    
Max Wind Speed 17 mph    
Max Gust Speed 22 mph    
Visibility 8 miles    
Events Rain , Thunderstorm    
Averages and records for this station are not official NWS values.
T = Trace of Precipitation, MM = Missing Value Source: NWS Daily Summary

Daily Weather History Graph

Daily Weather History Graph

Search for Another Location

Airport or City:

Trip Planner

Search our weather history database for the weather conditions in past years. The results will help you decide how hot, cold, wet, or windy it might be!

Date:

Astronomy

Mar. 18, 2013 Rise Set
Actual Time 7:26 AM CDT 7:30 PM CDT
Civil Twilight 7:01 AM CDT 7:56 PM CDT
Nautical Twilight 6:31 AM CDT 8:25 PM CDT
Astronomical Twilight 6:01 AM CDT 8:55 PM CDT
Moon 11:39 AM CDT (3/18) 1:18 AM CDT (3/18)
Length of Visible Light 12h 54m
Length of Day
12h 04m
Waxing Crescent, 41% of the Moon is Illuminated
Mar 18
Waxing Crescent
Mar 19
First Quarter
Mar 27
Full
Apr 2
Last Quarter
Apr 10
New

Hourly Weather History & Observations

Time (CDT) Temp. Windchill Dew Point Humidity Pressure Visibility Wind Dir Wind Speed Gust Speed Precip Events Conditions
12:15 AM 46.4 °F 45.2 °F 44.6 °F 93% 29.73 in 5.0 mi NNE 3.5 mph - N/A   Overcast
12:55 AM 44.6 °F 42.2 °F 44.6 °F 100% 29.73 in 5.0 mi NE 4.6 mph - N/A   Overcast
1:15 AM 44.6 °F 43.1 °F 44.6 °F 100% 29.72 in 5.0 mi East 3.5 mph - N/A   Overcast
1:55 AM 44.6 °F 42.2 °F 42.8 °F 93% 29.71 in 5.0 mi East 4.6 mph - N/A   Overcast
2:15 AM 44.6 °F 43.1 °F 44.6 °F 100% 29.72 in 5.0 mi East 3.5 mph - N/A   Overcast
2:35 AM 44.6 °F 43.1 °F 44.6 °F 100% 29.73 in 5.0 mi NE 3.5 mph - N/A   Overcast
2:55 AM 46.4 °F 45.2 °F 44.6 °F 93% 29.73 in 5.0 mi ENE 3.5 mph - N/A   Overcast
3:15 AM 46.4 °F 44.3 °F 44.6 °F 93% 29.73 in 5.0 mi ENE 4.6 mph - N/A   Overcast
3:35 AM 44.6 °F 42.2 °F 42.8 °F 93% 29.74 in 6.0 mi NE 4.6 mph - N/A   Overcast
3:55 AM 46.4 °F 43.5 °F 44.6 °F 93% 29.74 in 5.0 mi NNE 5.8 mph - N/A   Overcast
4:15 AM 44.6 °F 42.2 °F 44.6 °F 100% 29.76 in 5.0 mi NNE 4.6 mph - N/A   Overcast
4:35 AM 44.6 °F - 42.8 °F 93% 29.77 in 5.0 mi Calm Calm - N/A   Mostly Cloudy
4:55 AM 44.6 °F 41.4 °F 41.0 °F 87% 29.76 in 6.0 mi NNE 5.8 mph - N/A   Mostly Cloudy
5:15 AM 42.8 °F - 41.0 °F 93% 29.77 in 5.0 mi Calm Calm - N/A   Scattered Clouds
5:35 AM 42.8 °F - 41.0 °F 93% 29.78 in 5.0 mi Calm Calm - N/A   Scattered Clouds
5:55 AM 42.8 °F - 41.0 °F 93% 29.78 in 5.0 mi Calm Calm - N/A   Partly Cloudy
6:15 AM 41.0 °F 36.4 °F 41.0 °F 100% 29.82 in 3.0 mi WNW 6.9 mph - N/A   Mostly Cloudy
6:35 AM 44.6 °F 40.2 °F 42.8 °F 93% 29.81 in 3.0 mi NNE 8.1 mph - N/A Thunderstorm Overcast
6:55 AM 44.6 °F 43.1 °F 44.6 °F 100% 29.80 in 3.0 mi NE 3.5 mph - 0.01 in Rain Light Rain
7:15 AM 44.6 °F 42.2 °F 44.6 °F 100% 29.80 in 5.0 mi SE 4.6 mph - N/A Thunderstorm Overcast
7:35 AM 44.6 °F 40.7 °F 44.6 °F 100% 29.82 in 3.0 mi NNW 6.9 mph - N/A Thunderstorm Overcast
7:55 AM 44.6 °F 42.2 °F 44.6 °F 100% 29.85 in 2.0 mi NW 4.6 mph - N/A   Overcast
8:15 AM 44.6 °F 41.4 °F 44.6 °F 100% 29.86 in 3.0 mi NW 5.8 mph - N/A   Overcast
8:35 AM 44.6 °F 39.7 °F 44.6 °F 100% 29.87 in 3.0 mi NW 9.2 mph - N/A   Overcast
8:55 AM 44.6 °F 39.2 °F 44.6 °F 100% 29.86 in 4.0 mi NNW 10.4 mph - N/A   Overcast
9:15 AM 44.6 °F 38.4 °F 42.8 °F 93% 29.87 in 9.0 mi NNW 12.7 mph - N/A   Overcast
9:35 AM 44.6 °F 38.4 °F 41.0 °F 87% 29.89 in 8.0 mi NNW 12.7 mph 18.4 mph N/A   Overcast
9:55 AM 44.6 °F 38.1 °F 41.0 °F 87% 29.90 in 9.0 mi NNW 13.8 mph - N/A   Overcast
10:15 AM 44.6 °F 38.1 °F 41.0 °F 87% 29.90 in 9.0 mi NNW 13.8 mph 19.6 mph N/A   Overcast
10:35 AM 44.6 °F 38.8 °F 41.0 °F 87% 29.91 in 8.0 mi NNW 11.5 mph - N/A   Overcast
10:55 AM 46.4 °F 40.4 °F 41.0 °F 81% 29.92 in 9.0 mi NNW 13.8 mph - N/A   Overcast
11:15 AM 46.4 °F 40.7 °F 39.2 °F 76% 29.94 in 9.0 mi NNW 12.7 mph - N/A   Overcast
11:35 AM 46.4 °F 39.8 °F 39.2 °F 76% 29.95 in 10.0 mi NNW 16.1 mph 21.9 mph N/A   Overcast
11:55 AM 46.4 °F 40.1 °F 39.2 °F 76% 29.95 in 9.0 mi NNW 15.0 mph - N/A   Overcast
12:15 PM 46.4 °F 39.8 °F 39.2 °F 76% 29.96 in 10.0 mi NNW 16.1 mph - N/A   Overcast
12:35 PM 46.4 °F 40.1 °F 39.2 °F 76% 29.96 in 9.0 mi NNW 15.0 mph 21.9 mph N/A   Overcast
12:55 PM 46.4 °F 39.5 °F 39.2 °F 76% 29.97 in 10.0 mi North 17.3 mph 20.7 mph N/A   Overcast
1:15 PM 48.2 °F - 39.2 °F 71% 29.97 in 9.0 mi North 16.1 mph 21.9 mph N/A   Overcast
1:35 PM 48.2 °F - 39.2 °F 71% 29.97 in 9.0 mi NNW 11.5 mph - N/A   Overcast
1:55 PM 48.2 °F - 39.2 °F 71% 29.97 in 9.0 mi NNW 13.8 mph 17.3 mph N/A   Overcast
2:15 PM 50.0 °F - 39.2 °F 66% 29.97 in 9.0 mi North 12.7 mph 16.1 mph N/A   Overcast
2:35 PM 50.0 °F - 39.2 °F 66% 29.96 in 9.0 mi North 12.7 mph 17.3 mph N/A   Scattered Clouds
2:55 PM 51.8 °F - 37.4 °F 58% 29.95 in 9.0 mi North 8.1 mph - N/A   Partly Cloudy
3:15 PM 53.6 °F - 39.2 °F 58% 29.95 in 10.0 mi North 10.4 mph 17.3 mph N/A   Clear
3:35 PM 53.6 °F - 37.4 °F 54% 29.95 in 10.0 mi North 8.1 mph - N/A   Clear
3:55 PM 53.6 °F - 37.4 °F 54% 29.96 in 10.0 mi North 6.9 mph 18.4 mph N/A   Partly Cloudy
4:15 PM 53.6 °F - 37.4 °F 54% 29.96 in 10.0 mi North 9.2 mph - N/A   Clear
4:35 PM 55.4 °F - 37.4 °F 51% 29.95 in 10.0 mi NNW 11.5 mph 16.1 mph N/A   Clear
4:55 PM 55.4 °F - 35.6 °F 47% 29.96 in 10.0 mi NW 10.4 mph - N/A   Clear
5:15 PM 55.4 °F - 35.6 °F 47% 29.97 in 10.0 mi NW 8.1 mph - N/A   Clear
5:35 PM 55.4 °F - 35.6 °F 47% 29.96 in 10.0 mi NNE 8.1 mph - N/A   Clear
5:55 PM 57.2 °F - 32.0 °F 38% 29.97 in 10.0 mi North 10.4 mph - N/A   Clear
6:15 PM 57.2 °F - 32.0 °F 38% 29.97 in 10.0 mi North 10.4 mph - N/A   Clear
6:35 PM 55.4 °F - 32.0 °F 41% 29.98 in 10.0 mi North 8.1 mph - N/A   Clear
6:55 PM 55.4 °F - 32.0 °F 41% 29.98 in 10.0 mi NNE 4.6 mph - N/A   Clear
7:35 PM 51.8 °F - 35.6 °F 54% 29.98 in 10.0 mi Calm Calm - N/A   Clear
7:55 PM 48.2 °F - 37.4 °F 66% 29.99 in 10.0 mi Calm Calm - N/A   Clear
8:15 PM 48.2 °F - 37.4 °F 66% 30.00 in 10.0 mi Calm Calm - N/A   Clear
8:35 PM 46.4 °F - 37.4 °F 71% 30.01 in 10.0 mi Calm Calm - N/A   Clear
8:55 PM 44.6 °F - 37.4 °F 76% 30.02 in 10.0 mi Calm Calm - N/A   Clear
9:15 PM 44.6 °F - 37.4 °F 76% 30.02 in 10.0 mi Calm Calm - N/A   Clear
9:35 PM 44.6 °F - 39.2 °F 81% 30.03 in 9.0 mi Calm Calm - N/A   Clear
9:55 PM 42.8 °F - 37.4 °F 81% 30.03 in 10.0 mi Calm Calm - N/A   Partly Cloudy
10:15 PM 44.6 °F 43.1 °F 39.2 °F 81% 30.04 in 10.0 mi ENE 3.5 mph - N/A   Scattered Clouds
10:35 PM 41.0 °F - 37.4 °F 87% 30.05 in 10.0 mi Calm Calm - N/A   Partly Cloudy
10:55 PM 41.0 °F - 39.2 °F 93% 30.05 in 10.0 mi Calm Calm - N/A   Clear
11:15 PM 39.2 °F - 35.6 °F 87% 30.06 in 10.0 mi Calm Calm - N/A   Clear
11:35 PM 37.4 °F - 35.6 °F 93% 30.06 in 9.0 mi Calm Calm - N/A   Clear
11:55 PM 37.4 °F - 35.6 °F 93% 30.06 in 10.0 mi Calm Calm - N/A   Clear